This demonstration page uses our WeatherBlox Daily Observations layout. Learn more.

Left ArrowRight Arrow

Hourly Observations for May 22, 2015

Temp ( °F °C ) Dew Point ( °F °C ) Humidity (%) Winds ( mph kmh ) Pressure ( in mb ) Visibility ( mi km ) Precip ( " mm )
12:53 am 00:53 Cloudy 67 19.4 49 9.4 53 53 WSW 5 7 29.89 1012 10 16 0.00 0.00
1:53 am 01:53 Cloudy 66 18.9 49 9.4 54 54 WSW 5 7 29.89 1012 10 16 0.00 0.00
2:53 am 02:53 Cloudy 65 18.3 49 9.4 56 56 WSW 5 7 29.91 1013 10 16 0.00 0.00
3:53 am 03:53 Cloudy 64 17.8 49 9.4 58 58 S 5 7 29.92 1013 10 16 0.00 0.00
4:53 am 04:53 Cloudy 62 16.7 50 10 65 65 SSE 5 7 29.93 1013 10 16 0.00 0.00
5:53 am 05:53 Cloudy 61 16.1 50 10 67 67 SSE 6 9 29.93 1014 10 16 0.00 0.00
6:53 am 06:53 Mostly Cloudy 61 16.1 50 10 67 67 SSE 3 6 29.94 1014 10 16 0.00 0.00
7:53 am 07:53 Cloudy 62 16.7 50 10 65 65 Calm 29.95 1014 10 16 0.00 0.00
8:01 am 08:01 Mostly Cloudy 62 16.7 50 10 65 65 S 5 7 29.94 1014 10 16 0.00 0.00
8:53 am 08:53 Mostly Cloudy 64 17.8 49 9.4 58 58 Calm 29.96 1015 10 16 0.00 0.00
9:53 am 09:53 Partly Cloudy 68 20 49 9.4 51 51 VRB 5 7 29.95 1014 10 16 0.00 0.00
10:53 am 10:53 Mostly Sunny 71 21.7 49 9.4 46 46 VRB 3 6 29.94 1014 10 16 0.00 0.00
11:53 am 11:53 Partly Cloudy 73 22.8 49 9.4 43 43 S 9 15 29.93 1014 10 16 0.00 0.00
12:53 pm 12:53 Sunny 74 23.3 49 9.4 41 41 S 5 7 29.91 1013 10 16 0.00 0.00
1:53 pm 13:53 Mostly Sunny 78 25.6 50 10 37 37 undefined N/A 29.88 1012 10 16 0.00 0.00
2:53 pm 14:53 Sunny 79 26.1 50 10 36 36 SSW 8 13 29.87 1012 10 16 0.00 0.00
3:53 pm 15:53 Mostly Cloudy 77 25 50 10 39 39 S 6 9 29.86 1011 10 16 0.00 0.00
4:53 pm 16:53 Cloudy 77 25 50 10 39 39 VRB 6 9 29.86 1011 10 16 0.00 0.00
5:53 pm 17:53 Mostly Sunny 79 26.1 50 10 36 36 VRB 5 7 29.85 1011 10 16 0.00 0.00
6:53 pm 18:53 Cloudy 76 24.4 53 11.7 45 45 W 6 9 29.87 1012 10 16 0.00 0.00
7:53 pm 19:53 Cloudy 74 23.3 53 11.7 48 48 SW 5 7 29.88 1012 10 16 0.00 0.00
8:53 pm 20:53 Mostly Cloudy 72 22.2 55 12.8 55 55 WSW 5 7 29.89 1012 10 16 0.00 0.00
9:53 pm 21:53 Partly Cloudy 70 21.1 56 13.3 61 61 S 5 7 29.91 1013 10 16 0.00 0.00
10:53 pm 22:53 Cloudy 69 20.6 56 13.3 63 63 SSE 5 7 29.93 1014 10 16 0.00 0.00
11:53 pm 23:53 Clear 67 19.4 55 12.8 66 66 WSW 5 7 29.94 1014 10 16 0.00 0.00

Powered by AerisWeather